Regional Weather Roundup
Issued by NWS Grand Forks, ND

Home | Current Version | Previous Version | Text Only | Print | Product List | Glossary On
Versions: 1 2 3 4 5 6 7 8 9 10 11 12 13 14 15 16 17 18 19 20 21 22 23 24 25 26 27 28 29 30 31 32 33 34 35 36 37 38 39 40 41 42 43 44 45 46 47 48 49 50
000
ASUS43 KFGF 130210
RWRFGF
PRAIRIE TO PINES  WEATHER ROUNDUP
NATIONAL WEATHER SERVICE EASTERN NORTH DAKOTA/GRAND FORKS ND
800 PM CST TUE DEC 12 2017

 **SATELLITE DATA USED TO AUGMENT SKY COVER AT AUTOMATED STATIONS**
 *****  WEATHER ACROSS EASTERN NORTH DAKOTA  *****

CITY           SKY/WX    TMP DP  RH WIND       PRES   REMARKS
GRAND FORKS    CLOUDY    30  28  92 S8        29.52F WCI  22
GRAND FRKS AFB FAIR      28  26  92 S8        29.52F WCI  20
GRAND FRKS NWS   N/A     30 N/A N/A S5          N/A
DEVILS LAKE    CLOUDY    38  28  67 W16       29.51F
FARGO          FAIR      35  29  78 S12       29.57F
WAHPETON ARPT    N/A     30  25  80 SE6       29.63F WCI  24
$$

 ***** WEATHER ACROSS CENTRAL AND WESTERN NORTH DAKOTA  *****

CITY           SKY/WX    TMP DP  RH WIND       PRES   REMARKS
BISMARCK       FAIR      48  22  35 W14       29.62F
MINOT          FAIR      48  20  32 W18       29.52F
JAMESTOWN      FAIR      40  29  64 W9        29.56F
MINOT AFB      FAIR      46  20  36 W21G26    29.50F
GARRISON         N/A     47  15  27 W18G28    29.57F
WILLISTON      FAIR      48  25  40 NW23G39   29.69R
DICKINSON      FAIR      49  15  25 W24G36    29.68F
HETTINGER      FAIR      47  15  27 W22G30    29.76F
$$

 *****  OTHER AIRPORT OBSERVATIONS IN OUR AREA  *****

CITY           SKY/WX    TMP DP  RH WIND       PRES   REMARKS
WALHALLA       FAIR      39  28  65 W3        29.47F
GRAFTON AIRPOR FAIR      28  28 100 SE8       29.52F WCI  20
VALLEY CITY AR FAIR      36  32  87 W18       29.57F
CANDO          CLOUDY    41  27  56 W16       29.51F
CAVALIER APRT  FAIR      27  27 100 S7        29.48F WCI  19
GWINNER          N/A     36  27  69 SW14      29.61F
ROLLA          MOCLDY    43  25  49 W13       29.48F
 ***** THE ABOVE OBSERVATIONS ARE NON NWS ARE NOT QUALITY
       CONTROLLED AND MAY MIS-REPORT RAIN FOR SNOW...
$$

  *****  WEATHER ACROSS NORTHERN MINNESOTA  *****

CITY           SKY/WX    TMP DP  RH WIND       PRES   REMARKS
FLAG ISLAND    CLOUDY    14  10  85 SE10      29.60F WCI   1
WARROAD        CLOUDY    18  12  79 SE9       29.58F WCI   6
ROSEAU         CLOUDY    19  16  86 SE10      29.55F WCI   8
HALLOCK        FAIR      28  27  93 S13       29.49F WCI  18
THF RVR FALLS  FAIR      28  26  92 S8        29.54F WCI  20
BAUDETTE       CLOUDY    15  13  91 SE12      29.61F WCI   2
WASKISH        CLOUDY    16  14  93 SE8       29.62F WCI   5
CROOKSTON      FAIR      30  27  86 S14       29.55F WCI  20
STEPHEN NDAWN    N/A     30  27  86 S12         N/A  WCI  21
GREENBUSH NDAW   N/A     27  25  93 SE12        N/A  WCI  16
$$
  *****  WEATHER ACROSS CENTRAL AND WEST MINNESOTA  *****

CITY           SKY/WX    TMP DP  RH WIND       PRES   REMARKS
FOSSTON        FAIR      27  25  93 S9        29.58F WCI  17
BEMIDJI        MOCLDY    17  15  89 SE9       29.61F WCI   6
PARK RAPIDS    FAIR      21  18  88 SE10      29.63F WCI  10
ELBOW LAKE     FAIR      28  26  92 S9        29.66F WCI  19
WADENA         FAIR      21  21 100 SE6       29.65F WCI  14
DETROIT LAKES  FAIR      27  27 100 S7        29.61F WCI  19
MOORHEAD       FAIR      30  27  86 CALM      29.60F
FERGUS FALLS   FAIR      28  27  93 S8        29.67F WCI  20
MORRIS MN      FAIR      28  25  86 S6        29.67F WCI  22
STAPLES        MOCLDY    19  18  93 SE6       29.67F WCI  11
$$
  *****  WEATHER ELSEWHERE ACROSS MINNESOTA  *****

CITY           SKY/WX    TMP DP  RH WIND       PRES   REMARKS
DULUTH         LGT SNOW  11   9  92 S8        29.76F FOG     WCI  -1
INTRNTL FALLS  CLOUDY    12   7  80 SE10      29.69F WCI  -1
ELY            LGT SNOW  10   7  85 S6        29.75F WCI   1
CLOQUET        FLURRIES  12   9  85 SE5       29.76F WCI   4
WHEATON        FAIR      32  25  74 S3        29.67F
BRAINERD       CLOUDY    19  14  81 S7        29.71F WCI  10
HIBBING        CLOUDY    11   8  88 SE7       29.72F WCI   0
ALEXANDRIA     FAIR      31  27  85 SW9       29.67F WCI  23
SAINT CLOUD    CLOUDY    20  15  81 SE8       29.75F WCI  10
MINNEAPOLIS    CLOUDY    23  18  81 SE7       29.81F WCI  15
$$

  *****  WEATHER ACROSS SOUTH DAKOTA  *****

CITY           SKY/WX    TMP DP  RH WIND       PRES   REMARKS
SIOUX FALLS    FAIR      38  28  67 SW7       29.76F
BROOKINGS      FAIR      35  27  72 SW8       29.73
WATERTOWN      FAIR      31  26  82 S8        29.70F WCI  23
HURON          FAIR      35  24  64 S7        29.73F
SISSETON         N/A     43  27  53 SW18G28   29.62F
ABERDEEN       FAIR      35  27  72 SW10      29.67F
MITCHELL       FAIR      40  25  55 SW8       29.76F
PIERRE         FAIR      47  24  40 W14       29.75F
MOBRIDGE       FAIR      44  25  47 NW6       29.67F
RAPID CITY     FAIR      43  10  26 S3        29.88F
$$

  *****  SOME WEATHER IN NEARBY STATES *****

CITY           SKY/WX    TMP DP  RH WIND       PRES   REMARKS
GLASGOW MT     FAIR      49  24  37 NW24G32   29.92R
GREAT FALLS MT CLOUDY    48   5  17 SW14      30.18R
CHEYENNE WY    FAIR      49   9  19 W17G32    30.15F
SCOTTSBLUFF NE FAIR      43  16  33 NW8       30.03F
OMAHA NE       FAIR      32  24  72 SE8       29.94F WCI  25
DES MOINES IA  FAIR      29  19  66 SW12      29.96F WCI  19
DAVENPORT IA   CLOUDY    26   5  40 SW10      30.03F WCI  16
CHICAGO IL     MOCLDY    19   8  62 W8        29.99F WCI   9
EAU CLAIRE WI  CLOUDY    15  10  80 SE7       29.87F WCI   5
LA CROSSE WI   CLOUDY    23  11  60 S7        29.92F WCI  15
$$

  *****  SOME NATIONAL WEATHER *****

CITY           SKY/WX    TMP DP  RH WIND       PRES   REMARKS
LA GUARDIA NY  MOCLDY    36  25  64 NW24G30   29.44F
RALEIGH NC     FAIR      35  17  47 N8G25     29.79R
ATLANTA GA     FAIR      41  24  51 NW14      29.96R
NEW ORLEANS LA FAIR      51  42  71 NW8       30.18R
OKLAHOMA CITY  FAIR      37  26  64 S7        30.17F
ALBUQUERQUE NM FAIR      37   2  22 SE7       30.32S
SALT LAKE CITY FOG       25  25 100 CALM      30.45F VSB 1/4
LOS ANGELES CA FAIR      65  49  56 VRB5      30.04S SMOKE
BOISE ID       CLOUDY    23  21  92 NW8       30.54F FOG     WCI  14
SEATTLE WA     FAIR      41  33  73 N6        30.40S
$$

*** WEATHER ACROSS MANITOBA...SASKATCHEWAN AND ONTARIO ***
                ***ONTARIO***

CITY           SKY/WX    TMP DP  RH WIND       PRES   REMARKS
GERALDTON      FLURRIES -11 -15  84 E2        29.87F
THUNDER BAY    MOCLDY     3   0  85 CALM      29.89F
SIOUX LOOKOUT  CLOUDY     3  -2  78 SE6       29.72F WCI  -8
TORONTO        MOCLDY    12   1  62 W22G28    29.62F WCI  -7
BIG TROUT LK   CLEAR    -18 -24  76 SE3       29.83F
PICKLE LAKE    MOCLDY   -11 -15  84 SE6       29.76F WCI -25
DRYDEN         FLURRIES   7   3  85 SE12      29.67F WCI  -9
KENORA         FLURRIES  10   7  85 SE14      29.60F WCI  -5
$$
                *** MANITOBA***

CITY           SKY/WX    TMP DP  RH WIND       PRES   REMARKS
BRANDON        CLOUDY    34  30  86 NW10      29.49F
DAUPHIN        CLOUDY    34  28  80 W10       29.49R
ISLAND LAKE    FLURRIES   5   0  78 E10       29.70S WCI -10
PILOT MOUND      N/A     39  28  65 W12         N/A
THE PAS        CLOUDY    23  21  93 NW6       29.55S FOG     WCI  16
THOMPSON       LGT SNOW   7   3  85 E6        29.65R WCI  -3
WINNIPEG       CLOUDY    21  19  93 SE10      29.51F WCI  10
LYNN LAKE      FLURRIES   9   7  92 N6        29.63R WCI  -1
CHURCHILL      PTCLDY   -18 -22  83 W3        29.91R
$$
                ***SASKATCHEWAN***

CITY           SKY/WX    TMP DP  RH WIND       PRES   REMARKS
ESTEVAN        CLOUDY    39  30  70 NW28G33   29.63R
KINDERSLEY     CLEAR     37  28  70 NW21G33   29.94R
LLOYDMINSTER   PTCLDY    36  28  75 NW16G24   29.92R
PRINCE ALBERT  MOCLDY    37  30  75 NW17      29.73R
REGINA         CLOUDY    39  30  70 NW23G32   29.72R
YORKTON        CLOUDY    36  30  80 NW14      29.57R
N. BATTLEFORD  PTCLDY    37  30  75 NW18G25   29.87R
LA RONGE       MOCLDY    32  28  86 NW14      29.71R WCI  22
SASKATOON      MOCLDY    37  30  75 W13G21    29.80R
SWIFT CURRENT  PTCLDY    39  25  56 NW23G33   29.88R
$$
NOTE: THESE ARE AUTOMATED STATIONS WITH LIMITED QUALITY CONTROL
      "FAIR" INDICATES FEW OR NO CLOUDS BELOW 12,000 FEET WITH NO
      SIGNIFICANT WEATHER AND/OR OBSTRUCTIONS TO VISIBILITY.
      SKY/WX - SKY CONDITION AND SIGNIFICANT WEATHER.
      TMP - AIR TEMPERATURE.    DP   - DEWPOINT TEMPERATURE.
      RH  - RELATIVE HUMIDITY.  PRES - PRESSURE.
      HX  - HEAT INDEX.         WCI  - WIND CHILL INDEX.
$




USA.gov is the U.S. government's official web portal to all federal, state and local government web resources and services.